Location: Park Creek Village Mobile Home Park
(38.2885°N, 122.4714°W)
Time: 04:17:47
(UTC+00:00)

Daily predictions for brighter satellites

Satellite Brightness Start Highest point End
(mag) Time Altitude Azimuth Time Altitude Azimuth Time Altitude Azimuth
Radarsat Rocket 4.3 01:31:51 10° SSE 01:38:07 78° WSW 01:43:59 10° NNW
GENESIS II 4.3 01:35:35 10° SSW 01:39:35 83° ESE 01:43:38 10° NNE
Cosmos 1331 Rocket 4.0 01:34:34 10° S 01:39:39 63° ESE 01:44:45 10° NNE
COSMO-SKYMED 1 3.4 01:36:51 10° NE 01:40:42 31° E 01:44:33 10° SSE
YAOGAN 6 3.2 01:39:29 10° S 01:43:04 63° W 01:46:43 10° NNW
Okean O Rocket 1.6 01:39:29 10° SSE 01:43:52 89° W 01:48:15 10° NNW
H-2A R/B 3.7 01:41:47 10° N 01:45:34 35° WNW 01:49:18 10° SW
Cosmos 1908 4.2 01:42:12 10° SSW 01:45:56 52° W 01:49:43 10° N
Cosmos 1825 Rocket 3.6 01:48:18 10° N 01:52:42 58° E 01:57:02 10° SSE
YAOGAN 1 4.1 01:50:14 10° ESE 01:52:59 17° ENE 01:55:44 10° NNE
Cosmos 2219 4.3 01:48:48 10° N 01:53:24 24° NE 01:57:59 10° ESE
SL-4 R/B 4.2 01:55:20 10° NNW 01:56:17 11° N 01:57:14 10° N
Aureole 3 3.7 01:53:28 10° SSE 01:56:25 27° E 01:59:05 10° NNE
Cosmos 1892 4.4 01:56:41 10° NE 01:58:48 14° ENE 02:00:56 10° ESE
Hubble Space Telescope 3.6 01:59:34 10° SW 02:00:44 11° SSW 02:01:55 10° S
Delta 2 Rocket 4.2 01:57:57 10° W 02:03:06 66° S 02:08:24 11° ESE
CZ-2D R/B 4.0 02:00:24 10° SE 02:03:45 30° ENE 02:07:06 10° N
Cosmos 1726 Rocket 3.5 02:00:15 10° S 02:04:33 73° E 02:08:55 10° NNE
CZ-2C R/B 4.1 02:01:21 10° SE 02:06:15 29° ENE 02:11:04 10° N
Cosmos 1300 2.6 02:02:56 10° S 02:06:43 79° E 02:10:33 10° N
Cosmos 1302 Rocket 4.0 02:04:06 10° S 02:09:14 60° ESE 02:14:26 10° NNE
CZ-4B R/B 4.4 02:04:41 10° S 02:10:05 48° W 02:15:28 10° NNW
Cosmos 1758 Rocket 4.1 02:06:16 10° NNW 02:10:38 63° W 02:14:55 10° S
Atlas Centaur 2 4.0 02:04:03 10° SW 02:11:26 35° SSE 02:17:56 13° ESE
Timation 2 Rocket 4.3 02:07:29 10° NNW 02:13:59 55° ENE 02:20:39 10° SE
Okean-O 3.2 02:10:22 10° SE 02:14:24 36° ENE 02:18:28 10° N
Meteor 2-10 Rocket 4.3 02:09:56 10° SSE 02:14:30 29° E 02:18:56 10° NNE
Cosmos 2228 3.8 02:13:52 10° SSW 02:18:00 54° W 02:22:12 10° N
FALCON 9 DEB 4.0 02:15:03 10° WSW 02:18:07 42° NW 02:20:48 13° NNE
CZ-4B R/B 3.4 02:15:47 10° N 02:18:37 29° WNW 02:21:22 10° SW
Cosmos 1606 Rocket 4.3 02:15:16 10° SSW 02:19:31 57° W 02:23:51 10° N
ARGOS 4.4 02:18:06 17° E 02:19:43 19° ENE 02:23:27 10° NNE
BREEZE-M TANK 4.0 02:12:08 10° WNW 02:20:32 41° N 02:23:05 18° ENE
Elektron 3 4.5 02:17:51 10° NW 02:23:15 80° SW 02:26:21 10° SSE
FALCON 9 DEB 4.3 02:21:16 10° WSW 02:24:14 34° NW 02:26:38 14° NNE
NOSS 3-3 (A) 4.3 02:19:55 10° S 02:25:00 36° ESE 02:29:21 15° NE
NOSS 3-3 (C) 4.4 02:19:58 10° S 02:25:07 36° ESE 02:29:28 16° NE
Cosmos 1656 3.6 02:21:18 10° S 02:26:44 63° ESE 02:32:17 10° NNE
MOS 1 Rocket 4.0 02:23:58 10° NNE 02:28:15 33° E 02:32:44 10° SSE
SKYMED 2 3.8 02:24:31 10° N 02:28:52 73° WNW 02:33:10 10° SSW
Cosmos 2227 Rocket 2.8 02:24:45 10° N 02:29:53 34° ENE 02:33:07 20° ESE
Cosmos 44 4.1 02:26:14 10° SW 02:30:30 46° NW 02:35:02 10° NNE
CZ-4 R/B 4.3 02:28:19 10° SSE 02:32:28 77° ENE 02:36:38 10° N
CSL-04 Rocket 4.3 02:29:41 10° SE 02:34:40 35° ENE 02:39:39 10° N
Meteor 2-8 Rocket 4.4 02:29:08 10° S 02:35:13 83° E 02:41:22 10° N
Cosmos 1553 Rocket 4.0 02:29:00 10° S 02:35:20 69° E 02:41:36 10° NNE
OAO 3 Rocket 3.8 02:31:30 10° W 02:36:07 49° S 02:38:53 22° SE
Cosmos 1340 2.6 02:34:50 10° N 02:38:36 62° E 02:42:19 10° SSE
Helios 1A Rocket 2.8 02:35:47 10° SSE 02:39:54 82° ENE 02:44:02 10° N
GEOS 3 Rocket 4.3 02:38:25 26° E 02:40:26 35° NE 02:45:16 10° NNW
Cosmos 1939 Rocket 3.3 02:36:57 10° S 02:40:54 61° W 02:44:49 10° NNW
BREEZE-M DEB (TANK) 4.0 02:38:23 10° SSW 02:42:02 58° SE 02:50:32 16° ENE
Cosmos 1697 Rocket 2.9 02:39:02 10° S 02:44:19 45° ESE 02:47:49 20° NE
ASTRO E2 4.2 02:42:15 10° SW 02:45:24 23° SSE 02:46:10 21° SSE
Cosmos 2058 Rocket 3.8 02:44:49 10° SSW 02:49:12 57° W 02:53:38 10° N
H-2A R/B 2.4 02:44:07 10° SE 02:49:13 47° ENE 02:54:26 10° N
Cosmos 1992 Rocket 4.0 02:45:20 10° S 02:50:23 54° ESE 02:54:08 18° NNE
Cosmos 220 Rocket 4.0 02:46:12 10° S 02:50:25 55° ESE 02:52:04 34° NE
Cosmos 1455 3.0 02:52:32 10° S 02:54:54 35° SSE 02:54:54 35° SSE
Meteor 2-15 Rocket 4.4 02:50:35 10° S 02:56:37 63° E 03:02:41 10° NNE
CZ-4 R/B 1.6 02:57:37 10° S 03:01:31 67° W 03:05:23 10° NNW
Aureole 3 Rocket 4.4 02:59:23 10° SW 03:02:44 38° WNW 03:07:07 10° N
GPS 2-04 Rocket1 4.4 03:00:19 10° SSW 03:03:00 22° S 03:03:00 22° S
Cosmos 2058 3.2 02:59:57 10° N 03:03:08 48° NNE 03:03:08 48° NNE
SL-08 R/B 4.5 02:58:43 10° N 03:04:53 82° W 03:10:59 10° S
Cosmos 1745 Rocket 3.9 02:59:18 10° N 03:05:36 72° E 03:11:55 10° SSE
Cosmos 44 Rocket 4.3 03:01:36 10° S 03:04:22 29° SSE 03:04:22 29° SSE
Cosmos 1980 Rocket 3.3 03:01:12 10° SSE 03:04:11 27° SE 03:04:11 27° SE
Geosat 4.3 03:02:13 10° NNE 03:07:11 65° WNW 03:12:09 10° SW
Meteor 2-15 4.5 03:03:41 10° S 03:09:49 80° W 03:16:00 10° N
Cosmos 2297 Rocket 2.1 03:04:30 10° NNW 03:10:12 90° W 03:14:00 22° SSE
CSL-04 Debris 4.0 03:07:31 10° SSE 03:12:56 82° ENE 03:18:24 10° NNW
Cosmos 2360 4.1 03:10:55 10° S 03:16:34 66° ESE 03:17:40 54° ENE
Cosmos 1386 Rocket 4.5 03:16:15 10° N 03:22:41 89° W 03:29:00 10° S
OAO 2 Rocket 3.6 03:21:16 10° WSW 03:25:44 53° S 03:25:44 53° S
YAOGAN 1 3.8 03:24:40 10° S 03:28:44 40° W 03:32:49 10° NNW
SeaSat 1 3.1 03:31:00 44° N 03:31:00 44° N 03:34:30 10° NNW
Cosmos 2278 4.4 03:26:41 10° S 03:30:21 40° S 03:30:21 40° S
Cosmos 1892 4.4 03:31:05 10° NNW 03:34:36 33° W 03:36:35 20° SW
Cosmos 1709 Rocket 3.9 03:29:15 10° N 03:35:19 68° ENE 03:35:19 68° ENE
Cosmos 1315 Rocket 4.2 03:33:17 10° SSW 03:36:07 36° WSW 03:36:07 36° WSW
Cosmos 2219 4.0 03:32:17 10° NNW 03:37:48 49° WSW 03:42:03 17° S
Cosmos 2315 Rocket 4.2 03:39:46 10° S 03:49:08 31° N 03:52:12 10° N
Cosmos 968 Rocket 4.2 03:42:42 10° NNW 03:47:45 51° WSW 03:48:28 47° SW
Cosmos 2082 4.1 03:42:04 10° NNW 03:46:30 55° NNW 03:46:30 55° NNW
Cosmos 2369 4.3 03:49:45 10° SW 03:55:19 53° WNW 03:56:29 46° NNW
ARGOS 3.8 03:59:38 54° W 03:59:38 54° W 04:04:50 10° NNW
Atlas Centaur 2 3.4 03:52:36 10° WSW 04:00:32 48° S 04:00:32 48° S
Milstar 3 3.7 04:03:03 10° WSW 04:08:19 36° SSW 04:08:19 36° SSW
Cosmos 2227 Rocket 3.8 04:08:55 10° NW 04:13:49 31° WSW 04:15:02 28° SW
USA 215 4.3 04:17:13 34° N 04:17:13 34° N 04:21:19 10° NW
H-2A R/B 4.4 04:24:52 10° SW 04:28:50 21° W 04:32:52 10° NW
ATLAS 2AS CENTAUR R/B 4.2 04:25:32 10° NNW 04:29:06 27° N 04:29:06 27° N
Cosmos 2344 3.8 11:37:02 54° N 11:37:02 54° N 11:43:15 10° NNE
ADEOS Rocket 3.7 11:41:25 10° SE 11:46:36 44° ENE 11:51:49 10° N
ISS -0.3 11:52:01 11° ENE 11:52:01 11° ENE 11:52:09 10° ENE
